Regional Weather Roundup
Issued by NWS Cleveland, OH

Home | Current Version | Previous Version | Graphics & Text | Print | Product List | Glossary On
Versions: 1 2 3 4 5 6 7 8 9 10 11 12 13 14 15 16 17 18 19 20 21 22 23 24 25 26 27 28 29 30 31 32 33 34 35 36 37 38 39 40 41 42 43 44 45 46 47 48 49 50
000
ASUS41 KCLE 190310
RWRCLE
OHIO REGIONAL WEATHER ROUNDUP
NATIONAL WEATHER SERVICE CLEVELAND, OH
1100 PM EDT MON JUN 18 2018

NOTE: "FAIR" INDICATES FEW OR NO CLOUDS BELOW 12,000 FEET WITH NO
SIGNIFICANT WEATHER AND/OR OBSTRUCTIONS TO VISIBILITY.

OHZ001>008-015>018-024>027-034-035-043-044-190400-
   NORTHWEST OHIO

CITY           SKY/WX    TMP DP  RH WIND       PRES   REMARKS
DEFIANCE       FAIR      80  74  81 VRB5      29.93S
FINDLAY        FAIR      86  69  56 SW13G22   29.92R HX  90
TOLEDO EXPRESS FAIR      80  76  87 W7        29.91R
TOLEDO EXEC    FAIR      82  73  74 W7        29.91S
LIMA           FAIR      82  70  66 SW9       29.97R
$$

OHZ009>014-019>023-028>033-038-089-190400-
   NORTHEAST OHIO

CITY           SKY/WX    TMP DP  RH WIND       PRES   REMARKS
CLE-HOPKINS    MOCLDY    78  72  81 N14       29.94S
CLE-LAKEFRONT  CLOUDY    75  71  87 NE6       29.92R
CUY CO. ARPT   MOCLDY    77  73  88 NE7       29.94R
LORAIN-ELYRIA  MOCLDY    82  63  52 N9        29.93R
ASHTABULA      MOCLDY    73  73 100 NW5       29.92S
AKRON-CANTON   FAIR      83  70  64 W7        29.93S
WOOSTER        FAIR      81  71  71 W8        29.94R
MANSFIELD      FAIR      83  70  64 SW10      29.96R
YOUNGSTOWN     MOCLDY    75  72  90 N7        29.94R
$$

OHZ042-051>053-060>062-070>072-077>081-190400-
  SOUTHWEST OHIO

CITY           SKY/WX    TMP DP  RH WIND       PRES   REMARKS
CINC-COVINGTON FAIR      82  71  69 W6        30.03R
CINC-LUNKEN    FAIR      84  73  69 W9        30.01R HX  90
HAMILTON       FAIR      81  73  76 W3        30.01R
DAYTON         FAIR      81  77  88 SW12      30.01R
WRIGHT-PAT AFB FAIR      81  72  73 SW7       29.99R
DAYTON GENERAL FAIR      85  70  60 SW9       30.01R
WILMINGTON     FAIR      78  71  79 SW6       30.01R
$$

OHZ036-037-039>041-045>050-054>059-063>069-073>076-082>088-190400-
  CENTRAL AND SOUTHEAST OHIO

CITY           SKY/WX    TMP DP  RH WIND       PRES   REMARKS
COLUMBUS       FAIR      85  69  58 W9        29.96R
OSU AIRPORT    FAIR      82  71  69 W7        29.97R
BOLTON FIELD   FAIR      80  71  75 SW7       29.98S
RICKENBACK AFB FAIR      78  71  77 SW7       29.97S
NEWARK         LGT RAIN  81  71  71 W5        29.96R
MARION         FAIR      84  69  60 W10       29.96R
LANCASTER      FAIR      80  70  71 SW6       29.98S
ZANESVILLE     FAIR      81  70  69 SW6       29.96S
NEW PHILLY     NOT AVBL
$$




USA.gov is the U.S. government's official web portal to all federal, state and local government web resources and services.